EW8073 Weather Reports


time (UTC)temp
F
wind
direction
speed
knots
gust
knots
rain 1hr
in
rain 24hr
in
rain mn
in
humidity
%
barometer
mb
20260905180822 84 87 0.0 0.0 0.00 0.00 0.00 34 1017.5
20260905180323 84 88 0.0 0.0 0.00 0.00 0.00 36 1017.6
20260905175822 84 88 0.0 0.0 0.00 0.00 0.00 34 1017.6
20260905175326 84 88 0.0 0.0 0.00 0.00 0.00 35 1017.8
20260905174825 84 88 0.0 0.0 0.00 0.00 0.00 33 1017.9
20260905174325 84 88 0.0 0.0 0.00 0.00 0.00 35 1017.9
20260905173825 84 88 0.0 0.0 0.00 0.00 0.00 32 1017.8
20260905173321 84 88 0.0 0.0 0.00 0.00 0.00 35 1017.8
20260905172821 83 86 0.0 0.0 0.00 0.00 0.00 36 1017.6
20260905172321 83 86 0.0 0.0 0.00 0.00 0.00 37 1017.6
20260905171818 83 83 0.0 0.0 0.00 0.00 0.00 36 1017.8
20260905171318 82 74 0.0 0.0 0.00 0.00 0.00 35 1017.8
20260905170820 82 75 0.0 0.0 0.00 0.00 0.00 36 1017.8
20260905165814 81 244 0.0 0.0 0.00 0.00 0.00 37 1017.6
20260905165313 81 244 0.0 0.0 0.00 0.00 0.00 37 1017.6
20260905164810 80 244 0.0 0.0 0.00 0.00 0.00 37 1017.6
20260905163806 80 244 0.0 0.0 0.00 0.00 0.00 41 1017.8
20260905162804 79 246 0.0 0.0 0.00 0.00 0.00 41 1017.8
20260905162301 79 228 0.0 0.0 0.00 0.00 0.00 41 1017.8
20260905161800 78 228 0.0 0.0 0.00 0.00 0.00 41 1017.8
20260905161301 78 227 0.0 0.0 0.00 0.00 0.00 41 1017.8
20260905160801 78 232 0.0 0.0 0.00 0.00 0.00 41 1017.6
20260905160256 78 232 0.0 0.0 0.00 0.00 0.00 40 1017.6
20260905155758 77 232 0.0 0.0 0.00 0.00 0.00 41 1017.6
20260905155256 77 234 0.0 0.0 0.00 0.00 0.00 42 1017.8
20260905154754 77 234 0.0 0.0 0.00 0.00 0.00 41 1017.8
20260905154254 76 233 0.0 0.0 0.00 0.00 0.00 43 1017.8
20260905153754 76 233 0.0 0.0 0.00 0.00 0.00 43 1017.6
20260905153254 75 233 0.0 0.0 0.00 0.00 0.00 43 1017.8
20260905152255 74 233 0.0 0.0 0.00 0.00 0.00 46 1017.8
20260905151254 73 233 0.0 0.0 0.00 0.00 0.00 47 1017.8
20260905150752 73 233 0.0 0.0 0.00 0.00 0.00 48 1017.8
20260905145239 71 233 0.0 0.0 0.00 0.00 0.00 55 1017.6
20260905144734 70 233 0.0 0.0 0.00 0.00 0.00 56 1017.6
20260905143722 69 232 0.0 0.0 0.00 0.00 0.00 60 1017.8
20260905143216 68 232 0.0 0.0 0.00 0.00 0.00 60 1017.8
20260905142205 67 232 0.0 0.0 0.00 0.00 0.00 62 1017.6
20260905141658 66 232 0.0 0.0 0.00 0.00 0.00 63 1017.5
20260905141153 66 232 0.0 0.0 0.00 0.00 0.00 63 1017.4
20260905140140 65 232 0.0 0.0 0.00 0.00 0.00 65 1017.3
20260905135634 64 232 0.0 0.0 0.00 0.00 0.00 67 1017.3
20260905134622 63 228 0.0 0.0 0.00 0.00 0.00 68 1017.2
20260905134115 63 228 0.0 0.0 0.00 0.00 0.00 68 1017.3
20260905133103 63 227 0.0 0.0 0.00 0.00 0.00 68 1017.2
20260905132557 63 228 0.0 0.0 0.00 0.00 0.00 69 1017.2
20260905132052 62 228 0.0 0.0 0.00 0.00 0.00 68 1017.1
20260905131546 62 228 0.0 0.0 0.00 0.00 0.00 68 1017.1
20260905131041 62 227 0.0 0.0 0.00 0.00 0.00 68 1017.1
20260905130535 62 227 0.0 0.0 0.00 0.00 0.00 68 1016.9
20260905130030 62 227 0.0 0.0 0.00 0.00 0.00 67 1016.8
20260905125525 62 227 0.0 0.0 0.00 0.00 0.00 67 1016.8
20260905125017 63 228 0.0 0.0 0.00 0.00 0.00 67 1016.7
20260905124509 63 227 0.0 0.0 0.00 0.00 0.00 66 1016.7
20260905124005 63 227 0.0 0.0 0.00 0.00 0.00 66 1016.7
20260905122954 63 227 0.0 0.0 0.00 0.00 0.00 65 1016.6
20260905122445 63 227 0.0 0.0 0.00 0.00 0.00 65 1016.6
20260905121939 63 227 0.0 0.0 0.00 0.00 0.00 64 1016.5
20260905121434 63 227 0.0 0.0 0.00 0.00 0.00 64 1016.5
20260905120928 63 227 0.0 0.0 0.00 0.00 0.00 63 1016.5
20260905120423 63 227 0.0 0.0 0.00 0.00 0.00 64 1016.5
20260905115916 63 227 0.0 0.0 0.00 0.00 0.00 63 1016.5
20260905115410 63 227 0.0 0.0 0.00 0.00 0.00 63 1016.5
20260905114904 63 227 0.0 0.0 0.00 0.00 0.00 63 1016.5
20260905114358 63 227 0.0 0.0 0.00 0.00 0.00 63 1016.5
20260905113852 64 227 0.0 0.0 0.00 0.00 0.00 63 1016.5
20260905113347 64 227 0.0 0.0 0.00 0.00 0.00 63 1016.4
20260905112840 64 227 0.0 0.0 0.00 0.00 0.00 63 1016.4
20260905112334 64 227 0.0 0.0 0.00 0.00 0.00 63 1016.4
20260905111828 64 227 0.0 0.0 0.00 0.00 0.00 63 1016.4
20260905110817 65 227 0.0 0.0 0.00 0.00 0.00 63 1016.2
20260905110310 65 227 0.0 0.0 0.00 0.00 0.00 63 1016.4
20260905105257 65 227 0.0 0.0 0.00 0.00 0.00 63 1016.2
20260905104752 65 227 0.0 0.0 0.00 0.00 0.00 62 1016.2
20260905104245 66 0 0.0 0.0 0.00 0.00 0.00 61 1016.1
20260905103741 66 227 0.0 0.0 0.00 0.00 0.00 61 1016.1
20260905102738 66 227 0.0 0.0 0.00 0.00 0.00 59 1016.1
20260905102237 66 227 0.0 0.0 0.00 0.00 0.00 59 1016.1
20260905101231 67 227 0.0 0.0 0.00 0.00 0.00 58 1016.2
20260905100729 67 227 0.0 0.0 0.00 0.00 0.00 58 1016.1
20260905100228 67 227 0.0 0.0 0.00 0.00 0.00 58 1016.1
20260905095227 67 227 0.0 0.0 0.00 0.00 0.00 56 1016.0
20260905094726 68 227 0.0 0.0 0.00 0.00 0.00 55 1016.0
20260905093726 68 227 0.0 0.0 0.00 0.00 0.00 55 1015.9
20260905092722 68 227 0.0 0.0 0.00 0.00 0.00 54 1015.8
20260905091721 69 227 0.0 0.0 0.00 0.00 0.00 54 1015.8
20260905090722 69 227 0.0 0.0 0.00 0.00 0.00 53 1015.9
20260905090222 69 227 0.0 0.0 0.00 0.00 0.00 53 1015.9
20260905085721 69 227 0.0 0.0 0.00 0.00 0.00 52 1015.8
20260905085222 69 227 0.0 0.0 0.00 0.00 0.00 52 1015.7
20260905084721 69 227 0.0 0.0 0.00 0.00 0.00 52 1015.7
20260905084219 69 227 0.0 0.0 0.00 0.00 0.00 52 1015.5
20260905083718 69 227 0.0 0.0 0.00 0.00 0.00 52 1015.4
20260905083217 69 227 0.0 0.0 0.00 0.00 0.00 53 1015.5
20260905082717 69 227 0.0 0.0 0.00 0.00 0.00 52 1015.5
20260905082218 69 227 0.0 0.0 0.00 0.00 0.00 52 1015.5
20260905081220 70 227 0.0 0.0 0.00 0.00 0.00 52 1015.4
20260905080220 70 226 0.0 0.0 0.00 0.00 0.00 52 1015.4
20260905075714 70 226 0.0 0.0 0.00 0.00 0.00 51 1015.5
20260905075208 70 226 0.0 0.0 0.00 0.00 0.00 51 1015.5
20260905074701 70 226 0.0 0.0 0.00 0.00 0.00 51 1015.5
20260905074154 71 225 0.0 0.0 0.00 0.00 0.00 51 1015.7
20260905073648 71 225 0.0 0.0 0.00 0.00 0.00 51 1015.7
20260905073143 71 225 0.0 0.0 0.00 0.00 0.00 50 1015.5
20260905072637 71 225 0.0 0.0 0.00 0.00 0.00 50 1015.5
20260905072133 71 225 0.0 0.0 0.00 0.00 0.00 50 1015.7
20260905071626 71 225 0.0 0.0 0.00 0.00 0.00 50 1015.5
20260905071119 71 225 0.0 0.0 0.00 0.00 0.00 50 1015.5
20260905070613 71 225 0.0 0.0 0.00 0.00 0.00 50 1015.5
20260905070108 71 225 0.0 0.0 0.00 0.00 0.00 49 1015.5
20260905065601 72 225 0.0 0.0 0.00 0.00 0.00 49 1015.5
20260905065056 72 225 0.0 0.0 0.00 0.00 0.00 49 1015.5
20260905064549 72 225 0.0 0.0 0.00 0.00 0.00 49 1015.4
20260905064043 72 225 0.0 0.0 0.00 0.00 0.00 49 1015.4
20260905063538 73 224 0.0 0.0 0.00 0.00 0.00 48 1015.4
20260905063031 73 225 0.0 0.0 0.00 0.00 0.00 48 1015.3
20260905062525 73 225 0.0 0.0 0.00 0.00 0.00 48 1015.3
20260905062019 73 225 0.0 0.0 0.00 0.00 0.00 48 1015.3
20260905061514 74 225 0.0 0.0 0.00 0.00 0.00 47 1015.3
20260905061008 74 225 0.0 0.0 0.00 0.00 0.00 47 1015.3
20260905060501 74 225 0.0 0.0 0.00 0.00 0.00 46 1015.3
20260905055956 74 225 0.0 0.0 0.00 0.00 0.00 46 1015.2
20260905055452 75 225 0.0 0.0 0.00 0.00 0.00 46 1015.2
20260905054946 75 225 0.0 0.0 0.00 0.00 0.00 45 1015.1
20260905054438 76 225 0.0 0.0 0.00 0.00 0.00 44 1015.2
20260905053932 76 225 0.0 0.0 0.00 0.00 0.00 44 1015.2
20260905053424 76 225 0.0 0.0 0.00 0.00 0.00 43 1015.2
20260905052919 76 225 0.0 0.0 0.00 0.00 0.00 42 1015.2
20260905052412 77 225 0.0 0.0 0.00 0.00 0.00 42 1015.2
20260905051912 77 225 0.0 0.0 0.00 0.00 0.00 41 1015.3
20260905050908 78 225 0.0 0.0 0.00 0.00 0.00 40 1015.2
20260905045908 78 225 0.0 0.0 0.00 0.00 0.00 40 1015.2
20260905045408 78 225 0.0 0.0 0.00 0.00 0.00 40 1015.2
20260905044907 79 225 0.0 0.0 0.00 0.00 0.00 39 1015.1
20260905044408 79 230 0.0 0.0 0.00 0.00 0.00 39 1015.0
20260905043908 79 230 0.0 0.0 0.00 0.00 0.00 38 1015.1
20260905042909 79 134 0.0 0.0 0.00 0.00 0.00 38 1015.0
20260905042407 79 136 0.0 0.0 0.00 0.00 0.00 37 1015.0
20260905041908 79 132 0.0 0.0 0.00 0.00 0.00 37 1014.8
20260905041408 79 132 0.0 1.7 0.00 0.00 0.00 37 1014.8
20260905040907 79 132 0.9 2.6 0.00 0.00 0.00 37 1014.8
20260905040408 79 132 0.9 2.6 0.00 0.00 0.00 36 1014.8
20260905035908 79 97 0.0 0.9 0.00 0.00 0.00 36 1014.7
20260905035407 79 95 0.0 0.9 0.00 0.00 0.00 35 1015.0
20260905034907 79 90 0.0 0.9 0.00 0.00 0.00 34 1015.0
20260905034407 80 90 0.0 0.0 0.00 0.00 0.00 34 1015.1
20260905033908 80 90 0.0 0.0 0.00 0.00 0.00 33 1015.0
20260905032908 80 90 0.0 0.0 0.00 0.00 0.00 32 1015.0
20260905032407 81 90 0.0 0.0 0.00 0.00 0.00 32 1014.7
20260905031908 81 90 0.0 0.0 0.00 0.00 0.00 32 1014.7
20260905031409 81 90 0.0 0.0 0.00 0.00 0.00 31 1014.7
20260905030905 82 90 0.0 0.0 0.00 0.00 0.00 31 1014.7
20260905030406 82 90 0.0 0.0 0.00 0.00 0.00 30 1014.7
20260905025400 82 90 0.0 1.7 0.00 0.00 0.00 30 1014.7
20260905024853 83 89 0.0 1.7 0.00 0.00 0.00 30 1014.7
20260905024346 83 89 0.0 1.7 0.00 0.00 0.00 29 1014.6
20260905023841 83 89 0.0 3.5 0.00 0.00 0.00 29 1014.5
20260905023335 83 86 0.0 3.5 0.00 0.00 0.00 29 1014.4
20260905022828 83 76 0.0 0.0 0.00 0.00 0.00 28 1014.5
20260905022323 83 74 0.0 0.0 0.00 0.00 0.00 28 1014.5
20260905021817 83 74 0.0 0.0 0.00 0.00 0.00 28 1014.3
20260905021311 84 74 0.0 0.0 0.00 0.00 0.00 28 1014.3
20260905020806 84 74 0.0 0.0 0.00 0.00 0.00 28 1014.1
20260905020300 84 74 0.0 0.0 0.00 0.00 0.00 27 1014.1
20260905015753 84 75 0.0 0.0 0.00 0.00 0.00 27 1014.1
20260905015246 85 69 0.0 0.0 0.00 0.00 0.00 27 1014.1
20260905014235 85 67 0.0 0.0 0.00 0.00 0.00 26 1014.0
20260905013730 86 67 0.0 0.0 0.00 0.00 0.00 26 1014.0
20260905013222 86 67 0.0 0.0 0.00 0.00 0.00 26 1013.9
20260905012717 87 65 0.0 0.0 0.00 0.00 0.00 26 1013.9
20260905011718 87 63 0.0 0.0 0.00 0.00 0.00 25 1013.9
20260905011217 88 44 0.0 0.0 0.00 0.00 0.00 25 1013.8
20260905010719 88 104 0.0 0.0 0.00 0.00 0.00 25 1013.8
20260905005209 89 258 0.0 0.0 0.00 0.00 0.00 26 1013.8
20260905004207 89 103 0.0 0.0 0.00 0.00 0.00 25 1013.8
20260905003707 90 104 0.0 0.0 0.00 0.00 0.00 24 1013.8
20260905003207 90 101 0.0 0.0 0.00 0.00 0.00 24 1013.9
20260905002707 90 26 0.0 1.7 0.00 0.00 0.00 25 1013.8
20260905002207 90 131 0.0 1.7 0.00 0.00 0.00 25 1013.8
20260905001708 90 132 0.0 1.7 0.00 0.00 0.00 24 1013.7
20260905001208 90 125 0.0 0.9 0.00 0.00 0.00 24 1013.7
20260905000707 91 292 0.0 0.0 0.00 0.00 0.00 24 1013.8
20260904235708 91 162 0.0 0.0 0.00 0.00 0.00 25 1013.6
20260904235201 91 239 0.0 0.0 0.00 0.00 0.00 25 1013.6
20260904234654 91 101 0.0 0.0 0.00 0.00 0.00 24 1013.6
20260904233644 91 62 0.0 4.3 0.00 0.00 0.00 24 1013.6
20260904233137 91 159 0.0 4.3 0.00 0.00 0.00 23 1013.4
20260904232631 92 249 0.0 0.0 0.00 0.00 0.00 22 1013.4
20260904232125 92 78 0.0 2.6 0.00 0.00 0.00 23 1013.3
20260904225048 93 132 0.0 0.0 0.00 0.00 0.00 23 1013.4
20260904224544 93 123 0.0 0.0 0.00 0.00 0.00 24 1013.4
20260904223532 92 207 0.0 5.2 0.00 0.00 0.00 24 1013.4
20260904223025 93 103 0.0 0.9 0.00 0.00 0.00 23 1013.3
20260904222518 93 196 0.0 0.0 0.00 0.00 0.00 23 1013.3
20260904222013 93 202 0.0 0.0 0.00 0.00 0.00 23 1013.4
20260904221004 93 136 0.0 0.0 0.00 0.00 0.00 21 1013.4
20260904220506 93 115 0.0 0.0 0.00 0.00 0.00 23 1013.4
20260904220005 92 57 0.0 0.0 0.00 0.00 0.00 22 1013.6
20260904215003 92 225 0.0 3.5 0.00 0.00 0.00 22 1013.6
20260904214502 93 61 0.0 3.5 0.00 0.00 0.00 25 1013.6
20260904213958 94 83 0.0 0.9 0.00 0.00 0.00 22 1013.7
20260904213500 93 88 0.0 0.0 0.00 0.00 0.00 24 1013.6
20260904212959 92 86 0.0 0.0 0.00 0.00 0.00 20 1013.7
20260904212457 93 208 0.0 0.0 0.00 0.00 0.00 21 1013.8
20260904211957 93 208 0.0 0.0 0.00 0.00 0.00 22 1013.9
20260904211457 93 209 0.0 0.0 0.00 0.00 0.00 26 1013.8
20260904210957 92 209 0.0 0.0 0.00 0.00 0.00 24 1014.0
20260904205955 92 209 0.0 0.0 0.00 0.00 0.00 28 1014.1
20260904205455 92 209 0.0 0.0 0.00 0.00 0.00 18 1014.3
20260904204954 93 209 0.0 0.0 0.00 0.00 0.00 25 1014.4
20260904204453 92 123 0.0 2.6 0.00 0.00 0.00 22 1014.5
20260904203957 91 173 0.0 2.6 0.00 0.00 0.00 24 1014.5
20260904202438 92 147 0.0 0.0 0.00 0.00 0.00 23 1014.7
20260904201425 90 146 0.0 3.5 0.00 0.00 0.00 26 1015.0
20260904200922 89 28 0.0 1.7 0.00 0.00 0.00 24 1015.0
20260904200410 89 68 0.0 0.0 0.00 0.00 0.00 27 1015.1
20260904195906 89 65 0.0 0.0 0.00 0.00 0.00 26 1015.1
20260904194910 90 136 0.0 0.0 0.00 0.00 0.00 26 1015.2
20260904193906 89 128 0.9 6.1 0.00 0.00 0.00 26 1015.3
20260904193407 89 84 0.0 6.1 0.00 0.00 0.00 24 1015.3
20260904192906 89 199 0.0 0.9 0.00 0.00 0.00 26 1015.3
20260904192408 89 173 0.0 0.0 0.00 0.00 0.00 27 1015.4
20260904191907 88 145 0.0 0.0 0.00 0.00 0.00 27 1015.5
20260904191407 88 113 0.0 0.0 0.00 0.00 0.00 27 1015.4
20260904190902 88 113 0.0 0.0 0.00 0.00 0.00 26 1015.5
20260904190403 88 102 0.0 0.0 0.00 0.00 0.00 26 1015.5
20260904185402 87 98 0.0 0.0 0.00 0.00 0.00 24 1015.7
20260904184903 87 187 0.0 0.0 0.00 0.00 0.00 24 1015.8
20260904184403 87 187 0.0 0.0 0.00 0.00 0.00 25 1015.8
20260904183903 87 187 0.0 0.0 0.00 0.00 0.00 26 1015.9
20260904183402 87 187 0.0 0.0 0.00 0.00 0.00 24 1015.9
20260904182902 87 191 0.0 0.0 0.00 0.00 0.00 26 1015.9
20260904182403 86 238 0.0 0.0 0.00 0.00 0.00 26 1016.0
20260904181904 86 239 0.0 0.0 0.00 0.00 0.00 27 1015.9